Del Rio, TX

5:21 PM CST on February 25, 2017 (GMT -0600)
Del Rio International

Weather History for KDRT - May, 2013

Change the Weather History Date:

Wednesday, May 1, 2013

  Actual Average Record
Temperature  
Mean Temperature 86 °F 75 °F  
Max Temperature 98 °F 87 °F 104 °F (2002)
Min Temperature 73 °F 64 °F 46 °F (1908)
Degree Days  
Heating Degree Days 0 0  
Month to date heating degree days 0 0  
Since 1 July heating degree days 1009 1375  
Cooling Degree Days 21 11  
Month to date cooling degree days 21 11  
Year to date cooling degree days 447 340  
Growing Degree Days 36 (Base 50)    
Moisture  
Dew Point 62 °F    
Average Humidity 52    
Maximum Humidity 79    
Minimum Humidity 24    
Precipitation  
Precipitation 0.00 in 0.07 in 1.87 in (1959)
Month to date precipitation 0.00 0.07  
Year to date precipitation 1.75 4.46  
Sea Level Pressure  
Sea Level Pressure 29.73 in    
Wind  
Wind Speed 10 mph (ESE)    
Max Wind Speed 23 mph    
Max Gust Speed 35 mph    
Visibility 10 miles    
Events      
T = Trace of Precipitation, MM = Missing Value Source: NWS Daily Summary

Daily Weather History Graph

Daily Weather History Graph

Search for Another Location

Airport or City:

Trip Planner

Search our weather history database for the weather conditions in past years. The results will help you decide how hot, cold, wet, or windy it might be!

Date:

Astronomy

May. 01, 2013 Rise Set
Actual Time 7:01 AM CDT 8:20 PM CDT
Civil Twilight 6:36 AM CDT 8:45 PM CDT
Nautical Twilight 6:06 AM CDT 9:15 PM CDT
Astronomical Twilight 5:35 AM CDT 9:46 PM CDT
Moon 1:30 AM CDT (5/1) 12:41 PM CDT (5/1)
Length of Visible Light 14h 09m
Length of Day
13h 18m
Waning Gibbous, 59% of the Moon is Illuminated
May 1
Waning Gibbous
May 2
Last Quarter
May 9
New
May 17
First Quarter
May 24
Full

Hourly Weather History & Observations

Time (CDT) Temp. Heat Index Dew Point Humidity Pressure Visibility Wind Dir Wind Speed Gust Speed Precip Events Conditions
12:53 AM 80.1 °F 81.2 °F 62.1 °F 54% 29.66 in 10.0 mi ESE 13.8 mph - N/A   Clear
1:53 AM 78.1 °F - 64.9 °F 64% 29.68 in 10.0 mi ESE 13.8 mph - N/A   Clear
2:53 AM 75.9 °F - 64.9 °F 69% 29.68 in 10.0 mi ESE 17.3 mph 21.9 mph N/A   Clear
3:53 AM 73.9 °F - 64.9 °F 73% 29.67 in 10.0 mi ESE 16.1 mph - N/A   Partly Cloudy
4:06 AM 73.4 °F - 64.4 °F 73% 29.72 in 10.0 mi ESE 11.5 mph 21.9 mph N/A   Mostly Cloudy
4:53 AM 73.9 °F - 64.9 °F 73% 29.67 in 10.0 mi ESE 16.1 mph 23.0 mph N/A   Scattered Clouds
5:05 AM 73.4 °F - 64.4 °F 73% 29.73 in 10.0 mi East 15.0 mph 20.7 mph N/A   Mostly Cloudy
5:12 AM 73.4 °F - 64.4 °F 73% 29.72 in 10.0 mi ESE 17.3 mph 23.0 mph N/A   Scattered Clouds
5:24 AM 73.4 °F - 64.4 °F 73% 29.73 in 10.0 mi East 16.1 mph 21.9 mph N/A   Mostly Cloudy
5:53 AM 73.9 °F - 66.0 °F 76% 29.69 in 10.0 mi East 11.5 mph 19.6 mph N/A   Overcast
6:53 AM 73.9 °F - 66.0 °F 76% 29.72 in 10.0 mi ESE 10.4 mph 19.6 mph N/A   Overcast
7:09 AM 73.4 °F - 66.2 °F 78% 29.78 in 10.0 mi East 12.7 mph 20.7 mph N/A   Overcast
7:53 AM 73.0 °F - 66.0 °F 79% 29.73 in 9.0 mi ESE 15.0 mph 20.7 mph N/A   Mostly Cloudy
8:32 AM 73.4 °F - 66.2 °F 78% 29.81 in 9.0 mi ESE 10.4 mph 18.4 mph N/A   Mostly Cloudy
8:53 AM 75.0 °F - 66.9 °F 76% 29.77 in 9.0 mi ESE 10.4 mph - N/A   Overcast
9:53 AM 78.1 °F - 66.9 °F 68% 29.76 in 9.0 mi SSE 15.0 mph - N/A   Mostly Cloudy
10:53 AM 79.0 °F - 66.0 °F 64% 29.77 in 7.0 mi SE 10.4 mph - N/A   Mostly Cloudy
11:41 AM 80.6 °F 82.3 °F 64.4 °F 58% 29.82 in 8.0 mi SSE 9.2 mph - N/A   Partly Cloudy
11:53 AM 82.9 °F 84.6 °F 64.9 °F 54% 29.77 in 9.0 mi SSE 10.4 mph 16.1 mph N/A   Partly Cloudy
12:53 PM 86.0 °F 87.3 °F 64.0 °F 48% 29.75 in 9.0 mi SE 5.8 mph - N/A   Clear
1:53 PM 88.0 °F 88.4 °F 62.1 °F 42% 29.74 in 9.0 mi SSE 5.8 mph - N/A   Clear
2:53 PM 91.0 °F 90.5 °F 60.1 °F 35% 29.73 in 9.0 mi East 10.4 mph - N/A   Clear
3:53 PM 93.9 °F 92.9 °F 57.9 °F 30% 29.70 in 10.0 mi ENE 5.8 mph - N/A   Clear
4:53 PM 97.0 °F 95.3 °F 55.9 °F 25% 29.68 in 10.0 mi Variable 4.6 mph - N/A   Clear
5:53 PM 97.0 °F 95.0 °F 55.0 °F 24% 29.69 in 10.0 mi South 10.4 mph - N/A   Clear
6:53 PM 96.1 °F 93.8 °F 54.0 °F 24% 29.68 in 10.0 mi South 11.5 mph - N/A   Clear
7:53 PM 93.9 °F 91.4 °F 53.1 °F 25% 29.70 in 10.0 mi SSE 6.9 mph - N/A   Clear
8:53 PM 90.0 °F 88.1 °F 55.9 °F 31% 29.68 in 10.0 mi SE 10.4 mph - N/A   Clear
9:53 PM 90.0 °F 89.7 °F 60.1 °F 37% 29.76 in 10.0 mi East 9.2 mph - N/A   Clear
10:53 PM 81.0 °F - 48.9 °F 33% 29.81 in 10.0 mi ENE 16.1 mph 25.3 mph N/A   Clear
11:53 PM 80.1 °F - 50.0 °F 35% 29.78 in 10.0 mi ENE 6.9 mph - N/A   Clear